ATLAS 5 CENTAUR DEB, 43986

Orbit data source: Space-Track

ATLAS 5 CENTAUR DEB, 43986 is space debris in HEO originally from a launch on Wed, 17 Sep 2014 UTC launched from the Air Force Eastern Test Range (AFETR). Debris objects in space refer to the collection of defunct objects orbiting the Earth. Examples of debris include non-operational satellites, rocket bodies, and fragments generated from explosions, collisions, or faulty payload assembly.

Loading next visibility...
Identifier
43986, 2014-055AR
Orbit
HEO
Country
Flag of USUS
Related business
Flag of USUnited Launch Alliance/Lockheed Martin (US)
Manufacturer
Unknown
Mission
Spacecraft
Bus & Motor
Unknown
Mass
Unknown
Launch date (UTC)
2014-09-17 (11 years ago)
Launch vehicle
Unknown
Launch site
Air Force Eastern Test Range (AFETR)
Object type
Payload
Rocket body
Debris
Shape & HBR
Unknown shape, 1.1 m
Radar Cross Section
RCS unknown

Expand to show TLE details & history
Last TLE update: 1 day ago

TLE from 1 day ago
0 ATLAS 5 CENTAUR DEB
1 43986U 14055AR  25340.41551294 -.00000027  00000-0  00000-0 0  9990
2 43986  19.6562 168.3207 4841448 122.7904 293.3117  1.84562314 48558
Epoch: 2025-12-06T09:58Z
TLE epoch observation values (Epoch: 2025-12-06T09:58:20.318Z)
Latitude
-0.00002°
Longitude
-56.64948°
Altitude
22,700.892 km
Speed
3.636 km/s
True Right ascension
11h 13m 30s
True Declination
0° 00' 00"
Sunlit
Object was in daylight at epoch
Visualization orbit readout
Latitude
Unknown
Longitude
Unknown
Altitude
Unknown
Speed
Unknown
Apparent Right ascension
Unknown
Apparent Declination
Unknown
Sunlit
N/A
Visualization observer readout
Local Sidereal Time
12:31:17
Azimuth
Unknown
Elevation
Unknown
Doppler factor
Unknown
Orbital elements
Apogee altitude
35,290.866 km
Perigee altitude
8,105.067 km
Semi-major axis
28,076.104 km
Eccentricity
0.48414
Inclination
19.6562°
RAAN
168.3207°
Arg. of periapsis
122.7904°
True anomaly
237.30735°
Mean anomaly
293.3117°
Eccentric anomaly
265.65208°
Mean motion
0.46136 °/min
Orbital period
780.31 mins
BSTAR
0
Loading maneuver chart data...
Computing Atmospheric mass density...

Documentation

Showing up to 5 results
|